Location: Squirrel Cove
(50.1074°N, 124.9139°W)
Time: 17:21:29
(UTC-08:00)

Envisat - Visible Passes

Search period start: 26 November 2022 00:00
Search period end: 06 December 2022 00:00
Orbit: 763 x 765 km, 98.2° (Epoch: 26 November)

Date Brightness Start Highest point End Pass type
(mag) Time Alt. Az. Time Alt. Az. Time Alt. Az.
26 Nov 4.5 04:03:46 10° NNE 04:07:07 32° ENE 04:07:07 32° ENE visible
26 Nov 3.6 05:42:54 10° N 05:47:18 35° WNW 05:47:18 35° WNW visible
26 Nov 5.8 17:04:07 10° SW 17:07:17 16° W 17:10:28 10° NW visible
27 Nov 5.5 03:27:32 10° NE 03:29:28 17° ENE 03:29:28 17° ENE visible
27 Nov 3.2 05:05:37 10° N 05:09:39 53° NNW 05:09:39 53° NNW visible
27 Nov 4.6 06:46:33 10° NNW 06:48:46 13° NW 06:49:49 12° WNW visible
28 Nov 4.0 04:28:37 10° NNE 04:32:00 40° NE 04:32:00 40° NE visible
28 Nov 4.1 06:08:21 10° N 06:12:10 23° WNW 06:12:10 23° WNW visible
29 Nov 5.1 03:51:58 10° NNE 03:54:22 23° NE 03:54:22 23° NE visible
29 Nov 3.6 05:30:50 10° N 05:34:32 37° NW 05:34:32 37° NW visible
29 Nov 5.7 16:51:27 10° SW 16:55:11 20° W 16:58:57 10° NW visible
30 Nov 5.9 03:16:03 10° NE 03:16:44 12° ENE 03:16:44 12° ENE visible
30 Nov 3.8 04:53:38 10° NNE 04:56:55 41° N 04:56:55 41° N visible
30 Nov 4.5 06:34:04 10° NNW 06:37:00 16° NW 06:37:05 16° NW visible
01 Dec 4.6 04:16:44 10° NNE 04:19:17 28° NE 04:19:17 28° NE visible
01 Dec 4.0 05:56:11 10° N 05:59:28 26° NW 05:59:28 26° NW visible
01 Dec 6.0 17:18:27 10° WSW 17:20:35 12° W 17:22:43 10° WNW visible
02 Dec 5.5 03:40:14 10° NE 03:41:41 16° NE 03:41:41 16° NE visible
02 Dec 3.9 05:18:47 10° N 05:21:51 34° NNW 05:21:51 34° NNW visible
02 Dec 4.8 07:00:57 10° NW 07:01:38 10° NW 07:02:01 10° NW visible
03 Dec 4.3 04:41:40 10° NNE 04:44:15 30° NNE 04:44:15 30° NNE visible
03 Dec 4.4 06:21:45 10° NNW 06:24:25 18° NW 06:24:25 18° NW visible
04 Dec 5.1 04:04:53 10° NNE 04:06:39 20° NE 04:06:39 20° NE visible
04 Dec 4.1 05:44:05 10° N 05:46:50 26° NNW 05:46:50 26° NNW visible
04 Dec 5.8 17:05:25 10° SW 17:08:27 16° W 17:11:31 10° NW visible
05 Dec 5.8 03:28:36 10° NE 03:29:04 12° NE 03:29:04 12° NE visible
05 Dec 4.3 05:06:46 10° N 05:09:14 29° N 05:09:14 29° N visible
05 Dec 4.7 06:47:48 10° NNW 06:49:25 12° NW 06:49:25 12° NW visible
